Starlink 3930

operational
NORAD ID: 52568 Int'l Des: 2022-051 Owner: SPXS Country: US Constellation: starlink
LEOCIRCULAR

About Starlink 3930

Description loading...

Live Position

Loading 3D Globe...

Upcoming Passes

Altitude History

Altitude vs Time

uPlot chart will show altitude changes over time

Two-Line Element Set

1 52568U 22051AM 25259.48121043 .00000814 00000-0 69202-4 0 9998
2 52568 53.2170 181.1746 0001343 88.9116 271.2030 15.08842254185286
Epoch: Sep 16, 2025 • Age: 11 hours

Current Status

Altitude 545.2 km
Velocity 7.59 km/s
Sub-Earth Point -18.49°S, 170.03°W
Launch Date May 13, 2022
Age 3.3 years
Type internet

Technical Details

Classification Payload
Mass 297.00 kg
Dry Mass 275.00 kg
Total Mass 297.00 kg
Length 0.20 m
Diameter 2.80 m
Span 9.00 m
Shape Box + pan
Manufacturer SPXS
Bus Type Starlink
Phase Status In Orbit
Owner/State SPXS/US

Large Constellations

Loading constellations...